星链-31890 (STARLINK-31890 )

导读 | 豆包AI

STARLINK-31890是由美国于2024年5月18日发射的星链卫星,星链计划是SpaceX打造的卫星互联网星座项目,旨在为全球提供高速低延迟互联网服务。该卫星是星链组网的组成部分,入轨后将补充星链星座规模,提升全球网络覆盖能力,推进项目部署进程。

基本信息
目录编号:
59785
目录名称:
STARLINK-31890
国际标识:
2024-093D
轨道中心:
EARTH
卫星名称:
星链-31890
卫星全名:
星链-31890 (STARLINK-31890 )
卫星状态:
在轨 (已飞行713 天)
发射日期:
2024-05-18 UTC
国别 :
美国 (US)
星等 :
--
轨道信息
数据来源 国际轨道数据 AOE轨道数据
星历时间 2026-04-30T19:11:25+0800
15小时前
查看轨道信息
2026-04-28T14:00:00+0800
2天前
查看轨道信息
半长轴 6861.25km 6861.186km
偏心率 0.0001398 0.0001035
轨道倾角 43.005° 43.003°
近地点辐角 269.372° 262.539°
升交点赤经 273.060° 285.577°
平近点角 90.697° 135.409°
近地点 482.153km 482.338km
远地点 484.073km 483.76km
周期 94.268分钟 94.267分钟
每日圈数 15.275587 15.275802
详细信息
固有亮度:
5
最大亮度:
1.5
卫星平台:
Starlink v2.0 mini
覆盖范围:
全球
运营商:
太空探索技术公司
运营商所在国:
美国
制造商(研发单位):
太空探索技术公司
制造商所在国:
美国
使用方式:
暂无
卫星简介
星链(Starlink)计划是由太空探索技术公司(SpaceX)提出的一个巨型低轨卫星互联网星座项目,计划在2019年至2024年间在太空搭建由约1.2万颗卫星组成的“星链”网络,其中1584颗将部署在地球上空550千米处的近地轨道,并从2020年开始工作。该卫星仍在工作。
2D轨道图
3D轨道图
轨道高度分析图
轨道倾角分析图
轨道综合分析图
查看轨道综合分析图